DW7473 Weather Reports


Display with metric or nautical units.
time (UTC)temp
F
wind
direction
speed
MPH
gust
MPH
rain 1hr
in
rain 24hr
in
rain mn
in
humidity
%
barometer
mb
20190117144526 27 355 4.0 8.0 0.00 0.00 0.00 48 1031.4
20190117143108 27 30 0.0 10.0 0.00 0.00 0.00 50 1031.4
20190117141600 26 20 5.0 11.0 0.00 0.00 0.00 50 1031.4
20190117140100 26 38 3.0 10.0 0.00 0.00 0.00 50 1031.3
20190117134517 26 350 5.0 10.0 0.00 0.00 0.00 52 1031.1
20190117133025 25 5 3.0 8.0 0.00 0.00 0.00 54 1030.9
20190117131506 25 20 2.0 7.0 0.00 0.00 0.00 55 1030.7
20190117130003 25 9 2.0 6.0 0.00 0.00 0.00 56 1030.4
20190117124717 24 26 3.0 6.0 0.00 0.00 0.00 57 1030.5
20190117123143 24 10 3.0 8.0 0.00 0.00 0.00 58 1030.4
20190117121613 24 46 3.0 7.0 0.00 0.00 0.00 60 1030.0
20190117120142 25 348 2.0 5.0 0.00 0.00 0.00 60 1029.9
20190117114649 25 355 1.0 7.0 0.00 0.00 0.00 59 1029.8
20190117113129 25 5 3.0 7.0 0.00 0.00 0.00 59 1029.4
20190117111616 25 355 3.0 7.0 0.00 0.00 0.00 59 1029.4
20190117110105 26 355 2.0 6.0 0.00 0.00 0.00 60 1029.2
20190117104556 26 347 2.0 8.0 0.00 0.00 0.00 62 1029.0
20190117103119 26 5 2.0 8.0 0.00 0.00 0.00 61 1029.2
20190117101559 27 355 5.0 13.0 0.00 0.00 0.00 61 1028.9
20190117100042 27 360 8.0 11.0 0.00 0.00 0.00 63 1028.7
20190117094557 27 15 7.0 13.0 0.00 0.00 0.00 64 1028.5
20190117093101 28 336 5.0 10.0 0.00 0.00 0.00 64 1028.3
20190117091543 28 26 5.0 8.0 0.00 0.00 0.00 64 1028.2
20190117090103 28 360 4.0 12.0 0.00 0.00 0.00 64 1028.1
20190117084601 29 31 3.0 10.0 0.00 0.00 0.00 65 1028.2
20190117083046 29 12 1.0 7.0 0.00 0.00 0.00 65 1028.1
20190117081548 29 360 4.0 9.0 0.00 0.00 0.00 65 1028.0
20190117080036 30 13 4.0 9.0 0.00 0.00 0.00 64 1027.8
20190117074522 30 350 3.0 6.0 0.00 0.00 0.00 62 1027.8
20190117073102 30 346 5.0 8.0 0.00 0.00 0.00 61 1027.7
20190117071516 31 360 0.0 3.0 0.00 0.00 0.00 61 1027.4
20190117070008 31 5 1.0 4.0 0.00 0.00 0.00 60 1027.2
20190117064504 31 340 1.0 4.0 0.00 0.00 0.00 60 1027.0
20190117063216 31 313 1.0 5.0 0.00 0.00 0.00 59 1026.9
20190117061808 32 333 3.0 9.0 0.00 0.00 0.00 60 1026.6
20190117060205 32 348 2.0 8.0 0.00 0.00 0.00 63 1026.6
20190117054730 32 331 4.0 8.0 0.00 0.00 0.00 69 1026.3
20190117053124 33 17 0.0 4.0 0.00 0.00 0.00 70 1026.0
20190117051645 34 332 2.0 7.0 0.00 0.00 0.00 71 1025.8
20190117050123 34 314 0.0 3.0 0.00 0.00 0.00 71 1025.8
20190117044558 35 314 1.0 4.0 0.00 0.00 0.00 70 1025.7
20190117043155 35 319 2.0 6.0 0.00 0.00 0.00 69 1025.6
20190117041608 35 315 4.0 8.0 0.00 0.00 0.00 69 1025.3
20190117040137 35 317 2.0 7.0 0.00 0.00 0.00 70 1025.2
20190117034546 35 289 2.0 5.0 0.00 0.00 0.00 70 1024.9
20190117033111 35 336 2.0 6.0 0.00 0.00 0.00 70 1024.8
20190117031551 35 288 0.0 6.0 0.00 0.00 0.00 69 1024.7
20190117030044 35 286 2.0 8.0 0.00 0.00 0.00 68 1024.4
20190117024558 35 315 3.0 9.0 0.00 0.00 0.00 68 1024.3
20190117023103 35 286 3.0 10.0 0.00 0.00 0.00 68 1024.2
20190117021619 35 291 6.0 10.0 0.00 0.00 0.00 68 1023.8
20190117020114 35 284 5.0 8.0 0.00 0.00 0.00 68 1023.7
20190117014626 35 292 4.0 9.0 0.00 0.00 0.00 67 1023.3
20190117013025 35 281 3.0 7.0 0.00 0.00 0.00 68 1023.2
20190117011541 35 286 2.0 7.0 0.00 0.00 0.00 67 1023.0
20190117010051 35 248 3.0 8.0 0.00 0.00 0.00 67 1023.0
20190117004539 35 279 3.0 7.0 0.00 0.00 0.00 66 1023.0
20190117003048 35 344 2.0 8.0 0.00 0.00 0.00 66 1022.9
20190117001554 35 292 3.0 8.0 0.00 0.00 0.00 65 1022.8
20190117000026 36 292 2.0 7.0 0.00 0.00 0.00 64 1022.7
20190116234525 36 279 3.0 7.0 0.00 0.00 0.00 64 1022.5
20190116233021 36 343 3.0 8.0 0.00 0.00 0.00 65 1022.4
20190116231530 36 287 3.0 7.0 0.00 0.00 0.00 68 1022.4
20190116230014 37 293 3.0 8.0 0.00 0.00 0.00 69 1022.4
20190116224515 37 293 2.0 6.0 0.00 0.00 0.00 70 1022.1
20190116223032 37 292 1.0 6.0 0.00 0.00 0.00 70 1021.9
20190116221514 37 292 3.0 7.0 0.00 0.00 0.00 70 1021.6
20190116220011 37 303 4.0 10.0 0.00 0.00 0.00 70 1021.4
20190116214503 37 307 4.0 10.0 0.00 0.00 0.00 70 1021.1
20190116213003 37 301 1.0 9.0 0.00 0.00 0.00 70 1020.7
20190116211735 37 344 1.0 9.0 0.00 0.00 0.00 71 1020.6
20190116210220 37 327 2.0 13.0 0.00 0.00 0.00 71 1020.4
20190116204633 37 309 7.0 13.0 0.00 0.00 0.00 71 1020.3
20190116203142 37 296 7.0 14.0 0.00 0.00 0.00 71 1020.1
20190116201634 37 308 5.0 15.0 0.00 0.00 0.00 72 1020.0
20190116200206 37 266 5.0 12.0 0.00 0.00 0.00 71 1020.0
20190116194645 37 321 3.0 11.0 0.00 0.00 0.00 72 1020.0
20190116193136 37 316 5.0 14.0 0.00 0.00 0.00 71 1019.9
20190116191653 37 298 6.0 18.0 0.00 0.00 0.00 72 1019.8
20190116190122 36 311 6.0 13.0 0.00 0.00 0.00 72 1019.7
20190116184712 36 284 6.0 11.0 0.00 0.00 0.00 73 1019.7
20190116183145 36 269 5.0 11.0 0.00 0.00 0.00 73 1019.7
20190116181659 36 284 6.0 12.0 0.00 0.00 0.00 73 1019.7
20190116180145 36 245 5.0 10.0 0.00 0.00 0.00 74 1019.8
20190116174629 36 292 4.0 11.0 0.00 0.00 0.00 74 1019.8
20190116173117 36 261 6.0 10.0 0.00 0.00 0.00 74 1020.0
20190116171655 36 288 4.0 11.0 0.00 0.00 0.00 74 1020.2
20190116170116 35 269 6.0 11.0 0.00 0.00 0.00 75 1020.6
20190116164714 35 273 5.0 16.0 0.00 0.00 0.00 75 1020.9
20190116163143 34 278 4.0 12.0 0.00 0.00 0.00 76 1021.0
20190116161740 34 288 3.0 8.0 0.00 0.00 0.00 77 1021.3
20190116160051 34 320 4.0 9.0 0.00 0.00 0.00 77 1021.4
20190116154732 33 277 5.0 10.0 0.00 0.00 0.00 78 1021.4
20190116153128 33 273 5.0 10.0 0.00 0.00 0.00 78 1021.5
20190116151544 33 303 3.0 10.0 0.00 0.00 0.00 78 1021.4
20190116150104 32 298 2.0 11.0 0.00 0.00 0.00 79 1021.3